Simultaneous Nadir Overpasses (SNOs) Predictions

Prediction of SNOs between AQUA and METOP-B Satellite Orbit:

Table of predicted SNOs for the next 14.0 days since TLE Epoch: 9/17/2016
Index Date (AQUA) Time (AQUA) Lat,Lon (AQUA) SZA (AQUA ) Date (METOP-B) Time (METOP-B) Lat,Lon (METOP-B) SZA (METOP-B ) Distance(km) Time Diff (sec)
1 09/19/2016 00:40:21 -73.71, -15.70 107.73 09/19/2016 00:39:56 -73.72, -15.69 107.71 1.36 25
2 09/19/2016 01:29:50 73.78, 151.77 72.37 09/19/2016 01:30:34 73.80, 151.84 72.38 3.02 44
3 09/21/2016 19:24:58 73.11,-115.64 72.73 09/21/2016 19:23:51 73.07,-118.07 72.75 78.61 67
4 09/21/2016 20:14:35 -73.71, 50.74 106.64 09/21/2016 20:14:20 -73.72, 50.72 106.62 1.34 15
5 09/21/2016 21:04:04 73.79,-141.79 73.46 09/21/2016 21:04:58 73.80,-141.75 73.47 2.23 54
6 09/24/2016 14:59:18 73.49, -49.99 74.21 09/24/2016 14:58:07 73.42, -50.89 74.17 29.67 71
7 09/24/2016 15:48:48 -73.72, 117.16 105.54 09/24/2016 15:48:43 -73.72, 117.12 105.54 1.18 5
8 09/24/2016 16:38:17 73.80, -75.38 74.56 09/24/2016 16:39:21 73.80, -75.35 74.56 0.91 64
9 09/27/2016 10:33:35 73.67, 16.08 75.49 09/27/2016 10:32:26 73.66, 16.08 75.50 0.27 69
10 09/27/2016 11:23:02 -73.74,-176.44 104.42 09/27/2016 11:23:06 -73.76,-176.37 104.40 3.30 4
11 09/27/2016 12:12:31 73.82, -8.98 75.68 09/27/2016 12:13:44 73.84, -8.83 75.70 5.22 73
12 09/30/2016 06:07:48 73.65, 82.57 76.56 09/30/2016 06:06:50 73.66, 82.47 76.58 3.34 58
13 09/30/2016 06:57:16 -73.77,-110.06 103.30 09/30/2016 06:57:30 -73.75,-109.98 103.32 3.17 14




NCC Satellite Simultaneous Nadir Overpasses (SNOs) Prediction Service
